Change the Weather History Date:

Wednesday, February 5, 2014

  Actual Average Record
Temperature  
Mean Temperature 17 °F 24 °F  
Max Temperature 23 °F 33 °F 45 °F (2005)
Min Temperature 10 °F 16 °F -14 °F (2007)
Degree Days  
Heating Degree Days 48 41  
Month to date heating degree days 243 205  
Since 1 July heating degree days 4361 4088  
Cooling Degree Days 0 0  
Month to date cooling degree days 0 0  
Year to date cooling degree days 0 0  
Moisture  
Dew Point 13 °F    
Average Humidity 71    
Maximum Humidity 84    
Minimum Humidity 57    
Precipitation  
Precipitation 0.01 in 0.03 in 0.37 in (2008)
Month to date precipitation 0.01 0.19  
Year to date precipitation 0.76 1.85  
Sea Level Pressure  
Sea Level Pressure 30.10 in    
Wind  
Wind Speed 12 mph (NNE)    
Max Wind Speed 21 mph    
Max Gust Speed 29 mph    
Visibility 4 miles    
Events Fog , Snow    
T = Trace of Precipitation, MM = Missing Value Source: NWS Daily Summary

Daily Weather History Graph

Daily Weather History Graph

Search for Another Location

Airport or City:

Trip Planner

Search our weather history database for the weather conditions in past years. The results will help you decide how hot, cold, wet, or windy it might be!

Date:

Astronomy

Feb. 05, 2014 Rise Set
Actual Time 7:50 AM EST 6:00 PM EST
Civil Twilight 7:20 AM EST 6:29 PM EST
Nautical Twilight 6:47 AM EST 7:03 PM EST
Astronomical Twilight 6:14 AM EST 7:36 PM EST
Moon 10:56 AM EST (2/5) 12:00 AM EST (2/5)
Length of Visible Light 11h 09m
Length of Day
10h 10m
Waxing Crescent, 39% of the Moon is Illuminated
Feb 5
Waxing Crescent
Feb 6
First Quarter
Feb 14
Full
Feb 22
Last Quarter
Mar 1
New

Hourly Weather History & Observations

Time (EST) Temp. Windchill Dew Point Humidity Pressure Visibility Wind Dir Wind Speed Gust Speed Precip Events Conditions
12:12 AM 19.9 °F 8.6 °F 15.1 °F 81% 30.09 in 2.5 mi ENE 10.4 mph - 0.00 in Snow Light Snow
12:27 AM 19.9 °F 10.1 °F 15.1 °F 81% 30.08 in 3.0 mi ENE 8.1 mph - 0.00 in Snow Light Snow
12:53 AM 19.9 °F 6.7 °F 15.1 °F 81% 30.10 in 4.0 mi NE 13.8 mph - 0.00 in Snow Light Snow
1:39 AM 19.9 °F 8.6 °F 15.1 °F 81% 30.04 in 2.0 mi NE 10.4 mph - 0.00 in Snow Light Snow
1:53 AM 19.9 °F 7.9 °F 15.1 °F 81% 30.09 in 2.0 mi NE 11.5 mph - 0.00 in Snow Light Snow
2:35 AM 19.9 °F 7.3 °F 14.0 °F 78% 30.03 in 3.0 mi NE 12.7 mph - 0.00 in Snow Light Snow
2:53 AM 19.0 °F 6.8 °F 14.0 °F 81% 30.05 in 2.5 mi NE 11.5 mph - 0.00 in Snow Light Snow
3:02 AM 19.0 °F 5.6 °F 14.0 °F 81% 30.01 in 1.8 mi NE 13.8 mph 21.9 mph 0.00 in Snow Light Snow
3:12 AM 19.0 °F 6.1 °F 14.0 °F 81% 30.00 in 2.5 mi NE 12.7 mph - 0.00 in Snow Light Snow
3:24 AM 19.0 °F 5.0 °F 14.0 °F 81% 29.98 in 4.0 mi NE 15.0 mph - 0.00 in Snow Light Snow
3:46 AM 19.0 °F 4.5 °F 14.0 °F 81% 29.98 in 2.5 mi NE 16.1 mph 23.0 mph 0.01 in Snow Light Snow
3:53 AM 19.0 °F 4.0 °F 14.0 °F 81% 30.01 in 1.5 mi NE 17.3 mph - 0.01 in Snow Light Snow
4:01 AM 19.0 °F 4.5 °F 14.0 °F 81% 29.96 in 0.8 mi NE 16.1 mph 24.2 mph 0.00 in Snow Light Snow
4:23 AM 19.0 °F 4.0 °F 14.0 °F 81% 29.95 in 1.0 mi NE 17.3 mph 24.2 mph 0.00 in Snow Light Snow
4:36 AM 19.0 °F 4.5 °F 14.0 °F 81% 29.95 in 1.8 mi NE 16.1 mph - 0.00 in Snow Light Snow
4:40 AM 19.0 °F 6.1 °F 14.0 °F 81% 29.95 in 2.0 mi NNE 12.7 mph 21.9 mph 0.00 in Snow Light Snow
4:53 AM 19.0 °F 3.6 °F 14.0 °F 81% 29.98 in 2.5 mi NNE 18.4 mph 24.2 mph 0.00 in Snow Light Snow
5:15 AM 19.0 °F 3.6 °F 14.0 °F 81% 29.94 in 1.8 mi NE 18.4 mph 25.3 mph 0.00 in Snow Light Snow
5:53 AM 19.9 °F 5.7 °F 15.1 °F 81% 29.99 in 1.0 mi NNE 16.1 mph 25.3 mph 0.00 in Snow Light Snow
6:08 AM 19.9 °F 6.2 °F 15.1 °F 81% 29.96 in 0.8 mi NNE 15.0 mph 25.3 mph 0.00 in Snow Light Snow
6:19 AM 19.9 °F 5.7 °F 16.0 °F 85% 29.95 in 0.8 mi NNE 16.1 mph - 0.00 in Snow Light Snow
6:53 AM 19.9 °F 7.3 °F 16.0 °F 85% 30.00 in 0.8 mi NNE 12.7 mph - 0.00 in Snow Light Snow
7:30 AM 19.0 °F 5.0 °F 15.1 °F 85% 29.94 in 0.8 mi NNE 15.0 mph 24.2 mph 0.00 in Snow Light Snow
7:45 AM 19.0 °F 2.7 °F 15.1 °F 85% 29.95 in 1.0 mi NNE 20.7 mph 25.3 mph 0.00 in Snow Light Snow
7:53 AM 19.0 °F 6.1 °F 15.1 °F 85% 30.00 in 1.0 mi North 12.7 mph 25.3 mph 0.00 in Snow Light Snow
8:12 AM 19.0 °F 4.5 °F 15.1 °F 85% 29.96 in 0.8 mi North 16.1 mph - 0.00 in Snow Light Snow
8:27 AM 19.0 °F 3.6 °F 15.1 °F 85% 29.97 in 0.8 mi North 18.4 mph - 0.00 in Snow Light Snow
8:53 AM 19.0 °F 5.6 °F 14.0 °F 81% 30.03 in 0.8 mi North 13.8 mph - 0.00 in Snow Light Snow
9:15 AM 19.0 °F 5.0 °F 14.0 °F 81% 30.00 in 0.5 mi North 15.0 mph - 0.00 in   Haze
9:53 AM 19.0 °F 5.0 °F 14.0 °F 81% 30.05 in 0.8 mi North 15.0 mph - 0.00 in   Haze
10:07 AM 19.0 °F 5.6 °F 15.1 °F 85% 30.01 in 0.5 mi North 13.8 mph - N/A Fog Light Freezing Fog
10:48 AM 19.4 °F 5.0 °F 15.8 °F 86% 30.02 in 1.0 mi North 16.1 mph - N/A   Haze
10:53 AM 19.9 °F 7.3 °F 15.1 °F 81% 30.07 in 1.0 mi North 12.7 mph 24.2 mph N/A   Haze
11:20 AM 21.0 °F 6.2 °F 15.1 °F 78% 30.04 in 2.0 mi North 18.4 mph - N/A   Haze
11:43 AM 21.0 °F 8.1 °F 14.0 °F 74% 30.06 in 4.0 mi North 13.8 mph - N/A   Haze
11:53 AM 21.0 °F 7.6 °F 14.0 °F 74% 30.11 in 3.0 mi North 15.0 mph - N/A   Haze
12:06 PM 21.0 °F 7.1 °F 14.0 °F 74% 30.07 in 2.5 mi North 16.1 mph 26.5 mph N/A   Haze
12:33 PM 21.9 °F 8.2 °F 15.1 °F 75% 30.08 in 3.0 mi North 16.1 mph - N/A   Haze
12:53 PM 21.9 °F 8.2 °F 15.1 °F 75% 30.13 in 3.0 mi NNE 16.1 mph 20.7 mph N/A   Haze
1:01 PM 21.9 °F 8.7 °F 14.0 °F 72% 30.09 in 2.0 mi North 15.0 mph - N/A   Haze
1:34 PM 21.9 °F 9.8 °F 14.0 °F 72% 30.10 in 3.0 mi North 12.7 mph - N/A   Haze
1:53 PM 21.9 °F 10.4 °F 14.0 °F 72% 30.16 in 3.0 mi North 11.5 mph - N/A   Haze
2:24 PM 21.9 °F 10.4 °F 15.1 °F 75% 30.11 in 1.8 mi North 11.5 mph - 0.00 in Snow Light Snow
2:37 PM 21.9 °F 9.2 °F 14.0 °F 72% 30.12 in 3.0 mi North 13.8 mph - 0.00 in Snow Light Snow
2:53 PM 23.0 °F 9.6 °F 12.0 °F 63% 30.17 in 10.0 mi North 16.1 mph - 0.00 in   Mostly Cloudy
3:53 PM 21.9 °F 11.7 °F 10.9 °F 63% 30.22 in 10.0 mi NNE 9.2 mph - 0.00 in   Overcast
4:28 PM 21.9 °F 10.4 °F 10.0 °F 60% 30.19 in 10.0 mi North 11.5 mph - 0.00 in   Overcast
4:53 PM 21.0 °F 11.4 °F 9.0 °F 60% 30.25 in 10.0 mi North 8.1 mph - 0.00 in   Overcast
5:00 PM 19.9 °F 8.6 °F 9.0 °F 62% 30.21 in 10.0 mi North 10.4 mph - N/A   Overcast
5:19 PM 19.9 °F 9.3 °F 10.0 °F 65% 30.22 in 2.0 mi North 9.2 mph - 0.00 in Snow Light Snow
5:29 PM 19.9 °F 9.3 °F 9.0 °F 62% 30.23 in 10.0 mi NNE 9.2 mph - 0.00 in   Overcast
5:53 PM 19.0 °F 10.0 °F 8.1 °F 62% 30.29 in 10.0 mi North 6.9 mph - 0.00 in   Overcast
6:05 PM 19.0 °F 12.3 °F 8.1 °F 62% 30.25 in 10.0 mi North 4.6 mph - N/A   Mostly Cloudy
6:53 PM 18.0 °F 7.7 °F 8.1 °F 65% 30.32 in 10.0 mi NW 8.1 mph - N/A   Overcast
7:53 PM 18.0 °F 7.7 °F 7.0 °F 62% 30.33 in 10.0 mi NW 8.1 mph - N/A   Mostly Cloudy
8:53 PM 17.1 °F 8.7 °F 6.1 °F 62% 30.35 in 10.0 mi NW 5.8 mph - N/A   Overcast
9:53 PM 16.0 °F 4.4 °F 6.1 °F 65% 30.38 in 10.0 mi NW 9.2 mph - N/A   Overcast
10:53 PM 10.9 °F 1.4 °F 3.0 °F 70% 30.40 in 10.0 mi WNW 5.8 mph - N/A   Partly Cloudy
11:39 PM 12.0 °F 4.1 °F 3.9 °F 70% 30.35 in 10.0 mi NNW 4.6 mph - N/A   Mostly Cloudy
11:53 PM 12.9 °F 5.2 °F 5.0 °F 71% 30.40 in 10.0 mi North 4.6 mph - N/A   Overcast